Flag for U.S.A. Weather past 2 weeks in Vincennes, Indiana, U.S.A.

Now
75 °F

Sunny.


Feels Like: 76 °F
Forecast: 66 / 76 °F
Wind: 14 mph from South

Location: Lawrenceville-Vincennes International Airport

Current Time: May 25, 2015 at 8:26:33 PM

Latest Report: May 25, 2015 at 7:53 PM


Visibility: 10 mi

Pressure: 30.01 "Hg

Humidity: 74%

Dew point: 66 °F

Location of VincennesLocation

Historic Weather in Vincennes — Graph

°F

Vincennes temperature yesterday

Maximum temperature yesterday: 84 °F (at 4:53 PM)
Minimum temperature yesterday: 60 °F (at 4:53 AM)
Average temperature yesterday: 73 °F

Past Weeks' High & Low Weather Summary

 TemperatureHumidityPressure
High84 °F (May 15, 2:53 PM)97% (May 10, 9:53 PM)30.42 "Hg (May 10, 9:53 PM)
Low47 °F (May 21, 4:53 AM)32% (May 23, 4:53 PM)29.92 "Hg (May 11, 4:53 PM)
Average65 °F73%30.13 "Hg
* Reported May 10 6:53 PM — May 25 6:53 PM, Vincennes, Weather by CustomWeather, © 2015

Note: Actual official high and low records may vary slightly from our data, if they occured in-between our weather recording intervals... More about our weather records

Advertising

Vincennes weather history for previous 24 hours

 ConditionsComfort  
Time TempWeatherWind HumidityBarometerVisibility
6:53 PM
Mon, May 25
77 °FScattered clouds.14 mph69%30.03 "Hg10 mi
5:53 PM78 °FBroken clouds.15 mph66%30.03 "Hg10 mi
4:53 PM78 °FScattered clouds.17 mph66%30.04 "Hg10 mi
3:53 PM79 °FPassing clouds.17 mph62%30.04 "Hg10 mi
3:01 PM80 °FMore clouds than sun.14 mph62%30.07 "Hg10 mi
1:53 PM78 °FPartly sunny.20 mph64%30.06 "Hg10 mi
12:53 PM75 °FMostly cloudy.16 mph74%30.08 "Hg10 mi
11:53 AM72 °FMostly cloudy.15 mph81%30.07 "Hg10 mi
10:53 AM71 °FMostly cloudy.15 mph87%30.06 "Hg10 mi
9:53 AM69 °FMore clouds than sun.18 mph90%30.05 "Hg10 mi
8:53 AM69 °FLight rain. Mostly cloudy.18 mph87%30.04 "Hg10 mi
7:53 AM68 °FLight rain. Cloudy.17 mph93%30.02 "Hg10 mi
7:00 AM69 °FLight rain. Mostly cloudy.14 mph90%30.02 "Hg10 mi
5:53 AM69 °FLight rain. Passing clouds.16 mph90%29.99 "Hg10 mi
4:53 AM69 °FRain. Partly cloudy.20 mph90%29.99 "Hg7 mi
3:53 AM73 °FMostly cloudy.18 mph74%29.98 "Hg10 mi
2:53 AM74 °FPassing clouds.26 mph71%29.98 "Hg10 mi
1:53 AM75 °FPartly cloudy.17 mph69%29.99 "Hg10 mi
12:53 AM76 °FPassing clouds.15 mph67%29.99 "Hg10 mi
11:53 PM
Sun, May 24
76 °FPassing clouds.15 mph64%30.01 "Hg10 mi
10:53 PM76 °FPassing clouds.15 mph64%30.01 "Hg10 mi
8:53 PM79 °FScattered clouds.13 mph58%30.00 "Hg10 mi
Weather by CustomWeather, © 2015

See weather overviewHow to use our weather pages